EW2192 Weather Reports


Display with metric or nautical units.
time (UTC)temp
F
wind
direction
speed
MPH
gust
MPH
rain 1hr
in
rain 24hr
in
rain mn
in
humidity
%
barometer
mb
20260510201526 58 5 2.0 9.0 0.00 0.00 0.00 33 1019.5
20260510200125 58 5 3.0 10.0 0.00 0.00 0.00 32 1019.6
20260510194538 58 5 3.0 8.0 0.00 0.00 0.00 35 1019.5
20260510193130 58 5 3.0 11.0 0.00 0.00 0.00 35 1019.5
20260510191551 57 5 2.0 8.0 0.00 0.00 0.00 38 1019.5
20260510190012 57 5 2.0 10.0 0.00 0.00 0.00 37 1019.4
20260510184607 57 5 2.0 8.0 0.00 0.00 0.00 39 1019.4
20260510183015 56 5 3.0 9.0 0.00 0.00 0.00 38 1019.5
20260510181610 56 5 3.0 10.0 0.00 0.00 0.00 38 1019.6
20260510180017 55 5 3.0 9.0 0.00 0.00 0.00 39 1019.4
20260510174610 55 5 4.0 12.0 0.00 0.00 0.00 40 1019.2
20260510173037 55 5 4.0 12.0 0.00 0.00 0.00 40 1019.2
20260510171622 55 5 4.0 11.0 0.00 0.00 0.00 40 1019.0
20260510170109 54 5 3.0 10.0 0.00 0.00 0.00 39 1019.2
20260510164502 55 5 3.0 8.0 0.00 0.00 0.00 39 1019.2
20260510163055 54 5 2.0 6.0 0.00 0.00 0.00 43 1019.2
20260510161520 54 5 3.0 6.0 0.00 0.00 0.00 42 1019.1
20260510160115 53 360 3.0 9.0 0.00 0.00 0.00 42 1019.0
20260510154535 52 5 2.0 11.0 0.00 0.00 0.00 43 1018.8
20260510153130 51 5 2.0 6.0 0.00 0.00 0.00 46 1018.7
20260510151553 50 5 3.0 8.0 0.00 0.00 0.00 50 1018.8
20260510150013 49 5 3.0 10.0 0.00 0.00 0.00 51 1018.8
20260510144609 48 5 3.0 9.0 0.00 0.00 0.00 52 1018.7
20260510143024 47 5 2.0 5.0 0.00 0.00 0.00 59 1018.7
20260510141616 46 5 2.0 6.0 0.00 0.00 0.00 61 1018.6
20260510140039 44 5 3.0 8.0 0.00 0.00 0.00 69 1018.6
20260510134627 43 5 2.0 9.0 0.00 0.00 0.00 71 1018.6
20260510133058 42 5 1.0 4.0 0.00 0.00 0.00 74 1018.6
20260510131511 42 5 1.0 3.0 0.00 0.00 0.00 75 1018.5
20260510130104 41 5 1.0 4.0 0.00 0.00 0.00 75 1018.5
20260510124531 40 5 1.0 3.0 0.00 0.00 0.00 77 1018.4
20260510123127 39 5 0.0 1.0 0.00 0.00 0.00 78 1018.1
20260510121548 39 5 0.0 0.0 0.00 0.00 0.00 80 1018.0
20260510120026 38 5 0.0 0.0 0.00 0.00 0.00 80 1017.8
20260510114609 38 5 0.0 1.0 0.00 0.01 0.00 81 1017.5
20260510113026 37 5 0.0 0.0 0.00 0.01 0.00 80 1017.4
20260510111619 37 5 0.0 0.0 0.00 0.01 0.00 80 1017.2
20260510110042 37 5 0.0 1.0 0.00 0.01 0.00 80 1017.1
20260510104618 37 5 0.0 1.0 0.00 0.05 0.00 79 1016.9
20260510103050 37 5 0.0 1.0 0.00 0.05 0.00 78 1016.6
20260510101521 37 5 0.0 1.0 0.00 0.05 0.00 77 1016.4
20260510100105 37 5 0.0 1.0 0.00 0.05 0.00 76 1016.1
20260510094527 37 5 0.0 1.0 0.00 0.06 0.00 77 1015.9
20260510093120 37 5 0.0 1.0 0.00 0.06 0.00 78 1015.9
20260510091537 37 5 0.0 1.0 0.00 0.06 0.00 78 1015.7
20260510090134 36 5 0.0 2.0 0.00 0.06 0.00 77 1015.7
20260510084549 35 5 0.0 1.0 0.00 0.06 0.00 77 1015.3
20260510083011 35 5 0.0 1.0 0.00 0.06 0.00 75 1015.1
20260510081609 35 5 1.0 2.0 0.00 0.06 0.00 74 1014.7
20260510080032 35 5 0.0 1.0 0.00 0.06 0.00 73 1014.8
20260510074624 36 5 0.0 2.0 0.00 0.06 0.00 72 1014.6
20260510073058 36 5 0.0 1.0 0.00 0.06 0.00 71 1014.6
20260510071544 37 5 0.0 1.0 0.00 0.06 0.00 70 1014.5
20260510070135 37 5 0.0 2.0 0.00 0.06 0.00 70 1014.5
20260510064553 37 5 1.0 2.0 0.00 0.06 0.00 68 1014.4
20260510063017 38 5 0.0 0.0 0.00 0.06 0.00 66 1014.3
20260510061613 38 5 0.0 1.0 0.00 0.06 0.00 65 1014.3
20260510060032 39 5 0.0 1.0 0.00 0.06 0.00 63 1014.3
20260510054623 40 5 0.0 1.0 0.00 0.06 0.00 61 1014.2
20260510053035 41 5 0.0 1.0 0.00 0.06 0.00 61 1014.1
20260510051631 41 5 0.0 1.0 0.00 0.06 0.00 58 1014.0
20260510050045 42 5 0.0 1.0 0.00 0.06 0.00 56 1013.8
20260510044523 44 5 0.0 1.0 0.00 0.06 0.06 55 1013.7
20260510043110 45 5 0.0 0.0 0.00 0.06 0.06 52 1013.7
20260510041530 46 5 0.0 1.0 0.00 0.06 0.06 51 1013.6
20260510040125 47 5 0.0 1.0 0.00 0.06 0.06 49 1013.6
20260510034547 47 5 0.0 2.0 0.00 0.06 0.06 47 1013.4
20260510033038 48 5 0.0 3.0 0.00 0.06 0.06 45 1013.3
20260510031633 49 5 0.0 3.0 0.00 0.06 0.06 44 1013.1
20260510030052 49 5 1.0 6.0 0.00 0.06 0.06 43 1012.8
20260510024513 50 5 1.0 3.0 0.00 0.06 0.06 42 1012.4
20260510023108 50 360 1.0 6.0 0.00 0.06 0.06 41 1012.2
20260510021526 51 5 0.0 4.0 0.00 0.06 0.06 40 1011.8
20260510020119 51 5 1.0 5.0 0.00 0.06 0.06 40 1011.5
20260510014520 52 5 1.0 6.0 0.00 0.06 0.06 38 1011.2
20260510013123 52 5 1.0 8.0 0.00 0.06 0.06 38 1010.9
20260510011546 53 5 1.0 5.0 0.00 0.06 0.06 36 1010.6
20260510010008 53 360 1.0 8.0 0.00 0.06 0.06 35 1010.3
20260510004607 54 5 2.0 12.0 0.00 0.06 0.06 34 1010.1
20260510003028 54 5 2.0 11.0 0.00 0.06 0.06 33 1010.0
20260510001620 55 5 1.0 8.0 0.00 0.06 0.06 34 1009.8
20260510000039 55 5 5.0 14.0 0.00 0.06 0.06 33 1009.7
20260509234630 56 5 3.0 10.0 0.00 0.06 0.06 32 1009.6
20260509233048 56 5 2.0 13.0 0.00 0.06 0.06 32 1009.3
20260509231509 56 5 3.0 8.0 0.00 0.06 0.06 33 1009.2
20260509224527 56 5 3.0 11.0 0.00 0.06 0.06 32 1008.9
20260509223107 56 5 2.0 12.0 0.00 0.06 0.06 33 1008.9
20260509221533 57 5 4.0 11.0 0.00 0.06 0.06 33 1008.6
20260509220117 57 5 4.0 10.0 0.00 0.06 0.06 33 1008.5
20260509214546 57 5 3.0 13.0 0.00 0.06 0.06 33 1008.5
20260509213010 58 5 3.0 12.0 0.00 0.06 0.06 35 1008.3
20260509211609 58 5 4.0 10.0 0.00 0.06 0.06 34 1008.0
20260509210022 60 5 3.0 10.0 0.00 0.06 0.06 35 1007.9
20260509204620 60 5 3.0 10.0 0.00 0.06 0.06 35 1007.8
20260509203054 60 5 4.0 9.0 0.00 0.06 0.06 37 1007.7